FW7886 Weather Reports


Display with metric or nautical units.
time (UTC)temp
F
wind
direction
speed
MPH
gust
MPH
rain 1hr
in
rain 24hr
in
rain mn
in
humidity
%
barometer
mb
20260510054800 68 154 0.0 1.0 0.00 2.82 0.00 100 1012.2
20260510054512 68 154 0.0 1.0 0.00 2.82 0.00 100 1012.1
20260510053755 68 154 0.0 1.0 0.00 2.82 0.00 100 1012.0
20260510053517 68 154 0.0 1.0 0.00 2.82 0.00 100 1012.2
20260510053238 68 154 0.0 0.0 0.00 2.82 0.00 100 1012.1
20260510052255 68 154 0.0 1.0 0.00 2.83 0.00 100 1011.9
20260510052025 68 154 0.0 1.0 0.00 2.83 0.00 100 1012.0
20260510051258 68 154 0.0 2.0 0.00 2.83 0.00 100 1012.1
20260510051244 68 154 0.0 2.0 0.00 2.83 0.00 100 1012.1
20260510050257 68 173 0.0 1.0 0.00 2.83 0.00 100 1012.2
20260510045753 68 177 0.0 1.0 0.00 2.83 2.83 100 1012.2
20260510045246 68 177 0.0 2.0 0.00 2.83 2.83 100 1012.2
20260510045000 68 177 0.0 2.0 0.00 2.83 2.83 100 1012.3
20260510044234 68 144 0.0 2.0 0.00 2.83 2.83 100 1012.3
20260510043729 68 144 0.0 2.0 0.00 2.83 2.83 100 1012.3
20260510043223 68 144 0.0 1.0 0.00 2.83 2.83 100 1012.3
20260510042717 68 144 0.0 2.0 0.00 2.83 2.83 100 1012.2
20260510042438 68 144 0.0 2.0 0.00 2.83 2.83 100 1012.2
20260510041927 68 170 1.0 3.0 0.00 2.83 2.83 100 1012.2
20260510041422 68 243 1.0 3.0 0.00 2.83 2.83 100 1011.9
20260510040652 68 244 1.0 2.0 0.00 2.83 2.83 100 1011.8
20260510040147 68 243 1.0 3.0 0.00 2.96 2.83 100 1011.8
20260510035900 68 265 2.0 3.0 0.00 3.21 2.83 100 1011.6
20260510035135 68 261 2.0 5.0 0.00 3.24 2.83 100 1011.5
20260510034628 68 73 2.0 5.0 0.00 3.24 2.83 100 1011.6
20260510034123 68 318 3.0 6.0 0.00 3.24 2.83 100 1011.6
20260510033616 68 71 3.0 6.0 0.01 3.24 2.83 100 1011.5
20260510033111 68 298 2.0 5.0 0.01 3.24 2.83 100 1011.7
20260510032605 68 15 2.0 4.0 0.01 3.24 2.83 100 1011.6
20260510032056 68 262 2.0 4.0 0.03 3.24 2.83 100 1011.6
20260510031556 68 282 1.0 4.0 0.03 3.24 2.83 100 1011.8
20260510031043 68 39 1.0 4.0 0.03 3.24 2.83 100 1011.7
20260510030544 68 272 1.0 3.0 0.03 3.24 2.83 100 1011.8
20260510030044 68 278 1.0 2.0 0.03 3.24 2.83 100 1011.8
20260510025543 68 277 2.0 6.0 0.03 3.24 2.83 100 1011.7
20260510025043 68 267 2.0 6.0 0.03 3.24 2.83 100 1011.8
20260510024540 67 270 1.0 4.0 0.03 3.24 2.83 100 1011.7
20260510024040 67 80 1.0 2.0 0.03 3.24 2.83 100 1012.2
20260510023803 67 199 0.0 2.0 0.02 3.23 2.83 100 1012.1
20260510023038 67 172 1.0 3.0 0.02 3.23 2.82 100 1012.2
20260510022803 67 182 2.0 4.0 0.02 3.23 2.82 100 1012.4
20260510022040 67 21 2.0 5.0 0.00 3.21 2.80 100 1012.3
20260510021757 67 311 2.0 5.0 0.00 3.21 2.80 100 1012.2
20260510021037 67 60 2.0 5.0 0.00 3.21 2.80 100 1012.0
20260510020537 67 322 2.0 5.0 0.00 3.21 2.80 100 1011.8
20260510020038 67 270 2.0 4.0 0.00 3.21 2.80 100 1011.9
20260510015535 67 298 2.0 4.0 0.00 3.21 2.80 100 1011.9
20260510015034 67 266 3.0 6.0 0.00 3.21 2.80 100 1011.9
20260510014535 67 282 4.0 8.0 0.00 3.21 2.80 100 1011.7
20260510014034 67 284 4.0 8.0 0.00 3.21 2.80 100 1011.7
20260510013535 67 289 3.0 6.0 0.00 3.21 2.80 100 1012.0
20260510013036 67 324 2.0 5.0 0.00 3.21 2.80 100 1012.2
20260510012536 67 238 1.0 3.0 0.00 3.21 2.80 100 1012.4
20260510012256 67 160 0.0 1.0 0.00 3.21 2.80 100 1012.4
20260510011536 67 160 0.0 1.0 0.00 3.21 2.80 100 1012.2
20260510011034 67 146 0.0 1.0 0.00 3.21 2.80 100 1012.2
20260510010535 67 146 0.0 1.0 0.00 3.21 2.80 100 1012.5
20260510010034 67 126 0.0 1.0 0.00 3.21 2.80 100 1012.3
20260510005534 67 126 0.0 1.0 0.00 3.21 2.80 100 1012.2
20260510005034 67 126 0.0 1.0 0.00 3.21 2.80 100 1012.4
20260510004535 67 126 0.0 1.0 0.00 3.21 2.80 100 1012.2
20260510004034 67 126 0.0 1.0 0.00 3.21 2.80 100 1012.2
20260510003535 67 126 0.0 1.0 0.00 3.21 2.80 100 1012.1
20260510003035 67 126 0.0 1.0 0.00 3.21 2.80 100 1012.1
20260510002529 67 126 0.0 1.0 0.00 3.21 2.80 100 1012.1
20260510002023 67 126 0.0 1.0 0.00 3.21 2.80 100 1011.9
20260510001523 67 270 0.0 0.0 0.00 3.21 2.80 100 1011.9
20260510001240 67 270 0.0 0.0 0.00 3.21 2.80 100 1011.5
20260510000520 67 270 0.0 2.0 0.00 3.21 2.80 100 1011.4
20260510000017 67 270 1.0 3.0 0.00 3.21 2.80 100 1011.2
20260509235518 67 270 1.0 3.0 0.00 3.21 2.80 100 1010.9
20260509235231 67 266 1.0 3.0 0.01 3.21 2.80 100 1010.7
20260509234512 67 272 1.0 3.0 0.01 3.21 2.80 100 1010.7
20260509234010 67 277 2.0 3.0 0.02 3.21 2.80 100 1010.7
20260509233511 67 264 2.0 4.0 0.02 3.21 2.80 100 1010.5
20260509233010 67 258 2.0 4.0 0.03 3.21 2.80 100 1010.5
20260509232508 67 57 3.0 8.0 0.04 3.21 2.80 100 1010.4
20260509232006 67 279 3.0 8.0 0.05 3.21 2.80 100 1010.3
20260509231506 67 300 4.0 7.0 0.06 3.23 2.80 100 1010.0
20260509231007 67 270 4.0 7.0 0.07 3.27 2.80 100 1010.0
20260509230507 67 277 3.0 7.0 0.09 3.28 2.80 100 1010.0
20260509230209 67 278 2.0 5.0 0.11 3.30 2.80 100 1010.3
20260509230056 67 274 2.0 5.0 0.10 3.29 2.80 100 1010.2
20260509225009 67 273 3.0 5.0 0.10 3.33 2.79 100 1010.4
20260509224510 67 303 4.0 7.0 0.11 3.35 2.79 100 1010.8
20260509224005 67 279 4.0 7.0 0.12 3.34 2.78 100 1010.9
20260509223458 67 268 3.0 5.0 0.13 3.34 2.78 100 1011.0
20260509222952 67 268 3.0 5.0 0.14 3.33 2.77 100 1011.1
20260509222445 67 274 2.0 4.0 0.14 3.32 2.76 100 1011.2
20260509221939 67 281 0.0 4.0 0.14 3.31 2.75 100 1011.2
20260509221434 67 208 0.0 1.0 0.14 3.30 2.74 100 1011.2
20260509220933 67 208 1.0 3.0 0.15 3.29 2.73 100 1010.9
20260509220418 67 230 1.0 3.0 0.15 3.27 2.71 100 1011.2
20260509215912 67 241 1.0 2.0 0.15 3.26 2.70 100 1011.5
20260509215406 67 241 1.0 2.0 0.16 3.25 2.69 100 1011.8
20260509215120 67 241 0.0 1.0 0.16 3.24 2.69 100 1011.7
20260509214354 67 241 1.0 3.0 0.16 3.24 2.68 100 1011.2
20260509213848 67 241 2.0 5.0 0.18 3.25 2.66 100 1010.8
20260509213342 67 267 2.0 5.0 0.19 3.24 2.65 100 1010.5
20260509212835 67 279 1.0 5.0 0.22 3.24 2.63 100 1010.5
20260509212553 67 267 1.0 3.0 0.22 3.24 2.62 100 1010.7
20260509212044 67 260 1.0 3.0 0.22 3.25 2.61 100 1010.9
20260509211317 67 271 2.0 3.0 0.20 3.24 2.59 100 1011.3
20260509210812 67 267 2.0 3.0 0.19 3.24 2.58 100 1011.3
20260509210306 67 248 2.0 3.0 0.17 3.23 2.56 100 1011.2
20260509205800 67 280 1.0 3.0 0.15 3.22 2.55 100 1011.5
20260509205254 67 265 2.0 3.0 0.15 3.24 2.53 100 1011.6
20260509204747 67 270 2.0 3.0 0.13 3.23 2.52 100 1011.8
20260509204242 67 281 1.0 3.0 0.13 3.22 2.50 100 1011.6
20260509203736 67 98 0.0 1.0 0.12 3.19 2.48 100 1011.7
20260509203436 67 88 0.0 2.0 0.09 3.14 2.41 100 1011.8
20260509203321 67 98 0.0 2.0 0.11 3.16 2.45 100 1011.8
20260509202218 67 268 0.0 1.0 0.11 3.13 2.40 100 1011.8
20260509201711 67 268 0.0 2.0 0.13 3.13 2.39 100 1011.5
20260509201205 67 268 1.0 2.0 0.16 3.14 2.39 100 1011.4
20260509200659 67 268 2.0 7.0 0.17 3.14 2.39 100 1011.6
20260509200154 67 274 2.0 7.0 0.19 3.14 2.39 100 1011.4
20260509195647 67 277 1.0 5.0 0.22 3.15 2.39 100 1011.1
20260509195142 67 301 1.0 5.0 0.26 3.14 2.38 100 1010.8
20260509194635 67 282 1.0 4.0 0.27 3.13 2.38 100 1010.8
20260509194608 67 211 2.0 7.0 0.29 3.13 2.37 100 1011.1
20260509193625 67 270 4.0 7.0 0.28 3.12 2.35 100 1011.4
20260509193117 67 267 4.0 8.0 0.28 3.10 2.33 99 1011.5
20260509192838 67 284 4.0 8.0 0.28 3.10 2.31 99 1011.3
20260509192105 67 279 4.0 7.0 0.28 3.11 2.28 99 1011.5
20260509191559 67 286 2.0 6.0 0.29 3.11 2.25 100 1011.9
20260509191053 68 44 3.0 6.0 0.27 3.12 2.22 100 1012.1
20260509190548 68 47 3.0 7.0 0.26 3.16 2.22 100 1012.1
20260509190042 68 290 4.0 7.0 0.24 3.17 2.20 100 1012.0
20260509185535 68 284 3.0 7.0 0.22 3.19 2.17 100 1011.8
20260509185029 68 274 2.0 4.0 0.16 3.15 2.12 100 1012.2
20260509184523 68 284 3.0 6.0 0.14 3.14 2.10 100 1012.3
20260509184018 68 338 3.0 6.0 0.13 3.14 2.08 100 1012.2
20260509183512 68 325 3.0 6.0 0.11 3.20 2.07 100 1012.1
20260509183005 68 265 3.0 8.0 0.09 3.42 2.05 100 1012.0
20260509182500 68 265 3.0 8.0 0.07 3.54 2.03 100 1012.0
20260509181953 68 265 3.0 5.0 0.04 3.77 2.00 100 1011.9
20260509181448 68 249 3.0 8.0 0.00 4.03 1.96 100 1012.0
20260509180941 68 227 3.0 8.0 0.01 4.22 1.95 100 1012.3
20260509180706 67 322 3.0 5.0 0.01 4.26 1.95 100 1012.1
20260509180159 67 297 2.0 5.0 0.01 4.26 1.95 100 1012.0
20260509175440 67 287 2.0 5.0 0.01 4.27 1.95 100 1011.7
20260509175249 67 312 2.0 6.0 0.03 4.29 1.95 100 1011.6
20260509175202 67 342 2.0 6.0 0.03 4.31 1.95 100 1011.6
20260509174423 67 267 2.0 6.0 0.04 4.32 1.95 100 1011.5
20260509173435 67 263 1.0 6.0 0.04 4.37 1.95 100 1011.5
20260509172937 67 66 1.0 4.0 0.04 4.45 1.95 100 1011.3
20260509172435 67 272 3.0 6.0 0.05 4.47 1.95 100 1011.4
20260509171934 67 276 3.0 6.0 0.06 4.51 1.95 100 1011.7
20260509171435 67 274 3.0 5.0 0.06 4.66 1.95 100 1011.5
20260509170932 67 269 3.0 9.0 0.05 4.77 1.94 100 1011.8
20260509170432 67 261 3.0 9.0 0.06 5.00 1.94 100 1011.7
20260509165933 67 285 3.0 6.0 0.06 5.12 1.94 100 1011.8
20260509165659 67 282 2.0 4.0 0.06 5.19 1.94 100 1011.8
20260509165154 67 268 3.0 6.0 0.04 5.27 1.92 100 1012.1
20260509164429 67 312 3.0 8.0 0.04 5.30 1.92 100 1011.9
20260509163928 67 277 3.0 8.0 0.03 5.30 1.91 100 1011.7
20260509163429 67 238 3.0 7.0 0.03 5.30 1.91 100 1011.6
20260509162926 66 239 3.0 7.0 0.03 5.30 1.91 100 1011.9
20260509162425 66 284 3.0 6.0 0.02 5.29 1.90 100 1012.2
20260509161927 66 332 3.0 5.0 0.01 5.28 1.89 100 1012.6
20260509161426 66 44 2.0 4.0 0.01 5.28 1.89 100 1012.5
20260509160925 66 270 2.0 5.0 0.01 5.28 1.89 100 1012.2
20260509160647 66 267 2.0 5.0 0.00 5.27 1.88 100 1012.0
20260509155927 66 255 1.0 5.0 0.00 5.27 1.88 100 1012.0
20260509155425 66 181 0.0 2.0 0.00 5.27 1.88 100 1012.0
20260509154928 66 178 1.0 3.0 0.00 5.27 1.88 100 1012.2
20260509154426 66 275 1.0 4.0 0.00 5.27 1.88 100 1012.1
20260509153926 66 287 2.0 5.0 0.00 5.27 1.88 100 1012.1
20260509153427 66 265 2.0 5.0 0.00 5.27 1.88 100 1012.4
20260509152925 66 269 1.0 4.0 0.00 5.27 1.88 100 1012.4
20260509152425 66 265 1.0 2.0 0.00 5.27 1.88 100 1012.1
20260509151925 66 265 1.0 2.0 0.03 5.27 1.88 100 1012.2
20260509151427 66 265 1.0 3.0 0.05 5.27 1.88 100 1012.2
20260509150921 66 267 1.0 3.0 0.08 5.27 1.88 100 1012.2
20260509150423 65 285 1.0 3.0 0.10 5.27 1.88 100 1011.8
20260509145923 65 264 2.0 4.0 0.11 5.27 1.88 100 1011.7
20260509145422 65 233 3.0 4.0 0.14 5.27 1.88 100 1012.0
20260509144922 65 298 2.0 4.0 0.19 5.27 1.88 100 1012.0
20260509144421 65 271 3.0 6.0 0.21 5.27 1.88 100 1011.8
20260509143922 65 318 3.0 6.0 0.21 5.27 1.88 100 1011.8
20260509143421 65 272 3.0 6.0 0.24 5.27 1.88 100 1011.6
20260509142921 65 273 3.0 6.0 0.28 5.27 1.88 100 1011.5
20260509142424 65 271 2.0 5.0 0.35 5.27 1.88 100 1011.5
20260509141920 65 272 2.0 4.0 0.43 5.24 1.86 100 1011.4
20260509141419 65 260 2.0 4.0 0.56 5.22 1.83 100 1011.5
20260509140920 65 283 2.0 5.0 0.63 5.19 1.81 100 1011.6
20260509140414 65 305 2.0 5.0 0.75 5.17 1.78 100 1011.6
20260509135908 65 267 2.0 5.0 0.79 5.16 1.77 100 1012.1
20260509135402 65 319 1.0 4.0 0.79 5.13 1.75 100 1011.9
20260509134857 65 170 2.0 6.0 0.75 5.07 1.69 100 1011.5
20260509134350 65 265 1.0 6.0 0.75 5.06 1.67 100 1011.4
20260509133844 65 215 1.0 3.0 0.76 5.06 1.67 100 1011.4
20260509133338 65 278 1.0 3.0 0.75 5.03 1.64 100 1011.8
20260509133105 65 260 1.0 3.0 0.76 4.98 1.60 100 1012.0
20260509132325 65 296 0.0 3.0 0.85 4.90 1.51 100 1011.9
20260509131820 65 163 0.0 1.0 0.93 4.78 1.40 100 1012.1
20260509131314 65 162 0.0 1.0 0.93 4.64 1.26 100 1011.8
20260509130808 65 169 0.0 1.0 0.92 4.51 1.14 100 1012.2
20260509130302 65 169 0.0 2.0 0.97 4.41 1.03 100 1012.0
20260509125756 65 214 1.0 3.0 0.94 4.36 0.97 100 1011.6
20260509125250 65 225 1.0 3.0 0.93 4.33 0.95 99 1011.6
20260509124743 65 226 1.0 3.0 0.92 4.32 0.93 99 1011.5
20260509124238 65 183 1.0 3.0 0.91 4.31 0.92 99 1011.4
20260509123733 65 179 1.0 2.0 0.90 4.30 0.91 99 1011.2
20260509123226 65 242 1.0 5.0 0.87 4.27 0.88 99 1011.7
20260509122720 65 241 1.0 5.0 0.79 4.19 0.80 99 1012.0
20260509122214 65 248 1.0 5.0 0.62 4.02 0.63 98 1012.1
20260509121935 66 167 2.0 5.0 0.41 3.81 0.44 98 1011.9
20260509121202 66 179 3.0 11.0 0.25 3.65 0.29 98 1011.9
20260509120655 67 150 3.0 11.0 0.16 3.56 0.18 97 1011.7
20260509120150 68 210 3.0 10.0 0.03 3.43 0.05 96 1011.7
20260509115644 70 96 1.0 10.0 0.01 3.41 0.02 96 1011.6
20260509115138 71 172 0.0 2.0 0.00 3.40 0.01 99 1011.3
20260509114632 71 281 0.0 1.0 0.00 3.40 0.01 99 1010.7
20260509114348 71 284 0.0 1.0 0.00 3.40 0.01 99 1010.3
20260509113625 71 284 0.0 1.0 0.00 3.40 0.01 99 1010.1
20260509113114 71 284 0.0 1.0 0.00 3.40 0.01 98 1010.0
20260509112832 71 284 1.0 3.0 0.00 3.40 0.01 98 1009.8
20260509112102 71 284 1.0 3.0 0.00 3.40 0.01 98 1009.7
20260509111555 71 65 1.0 3.0 0.00 3.40 0.01 98 1009.6
20260509111050 71 332 1.0 4.0 0.00 3.40 0.01 98 1009.6
20260509110804 71 274 2.0 4.0 0.00 3.40 0.01 98 1009.2
20260509110044 71 277 2.0 4.0 0.00 3.40 0.01 98 1009.1
20260509105544 71 299 2.0 3.0 0.00 3.40 0.01 98 1008.9
20260509105044 71 274 2.0 3.0 0.00 3.40 0.01 98 1008.6
20260509104543 71 317 3.0 7.0 0.00 3.40 0.01 98 1008.8
20260509104043 71 281 3.0 7.0 0.00 3.40 0.01 98 1008.9
20260509103547 71 300 3.0 7.0 0.00 3.40 0.01 98 1008.7
20260509103045 71 338 2.0 5.0 0.00 3.40 0.01 98 1009.0
20260509102804 71 267 2.0 4.0 0.00 3.40 0.01 98 1009.0
20260509102044 71 272 2.0 4.0 0.00 3.40 0.01 98 1009.2
20260509101541 71 302 2.0 4.0 0.00 3.40 0.01 99 1009.1
20260509101041 71 294 2.0 4.0 0.00 3.40 0.01 99 1009.2
20260509101021 70 36 1.0 4.0 0.00 3.40 0.01 99 1009.0
20260509100042 70 263 1.0 2.0 0.00 3.40 0.01 99 1009.0
20260509095541 70 263 2.0 5.0 0.00 3.40 0.01 99 1008.8
20260509095041 70 311 2.0 5.0 0.00 3.40 0.01 99 1008.5
20260509094542 70 103 1.0 3.0 0.00 3.40 0.01 99 1008.5
20260509094045 70 214 2.0 3.0 0.00 3.40 0.01 99 1008.4
20260509093539 70 242 2.0 3.0 0.00 3.40 0.01 99 1008.1
20260509093039 70 246 2.0 3.0 0.00 3.40 0.01 99 1008.3
20260509092538 70 245 1.0 3.0 0.00 3.40 0.01 99 1008.4
20260509092036 70 245 0.0 2.0 0.00 3.40 0.01 99 1008.6
20260509091534 70 245 0.0 2.0 0.00 3.40 0.01 99 1008.7
20260509091035 70 260 1.0 3.0 0.00 3.40 0.01 99 1008.6
20260509090757 70 260 2.0 4.0 0.00 3.40 0.01 99 1008.6
20260509090032 70 272 2.0 4.0 0.00 3.40 0.01 99 1008.6
20260509085529 70 260 2.0 4.0 0.00 3.40 0.01 99 1008.8
20260509085029 70 261 2.0 4.0 0.00 3.40 0.01 99 1008.9
20260509084530 70 261 2.0 5.0 0.00 3.40 0.01 99 1009.0
20260509084026 70 304 2.0 5.0 0.00 3.40 0.01 99 1009.2
20260509083526 70 256 3.0 5.0 0.00 3.40 0.01 99 1009.4
20260509083028 70 310 3.0 5.0 0.00 3.40 0.01 100 1009.3
20260509082527 70 272 3.0 5.0 0.00 3.40 0.01 100 1009.4
20260509082027 70 337 3.0 5.0 0.00 3.40 0.01 100 1009.4
20260509081748 70 309 2.0 4.0 0.00 3.40 0.01 100 1009.4
20260509081024 69 264 2.0 4.0 0.00 3.40 0.01 100 1009.6
20260509080522 69 272 2.0 4.0 0.00 3.40 0.01 100 1009.7
20260509080246 69 272 2.0 4.0 0.00 3.40 0.01 100 1009.6
20260509075521 69 239 1.0 4.0 0.00 3.40 0.01 100 1009.7
20260509075019 69 274 2.0 4.0 0.00 3.40 0.01 100 1009.8
20260509074520 69 288 2.0 4.0 0.00 3.40 0.01 100 1009.8
20260509074018 69 310 2.0 4.0 0.00 3.40 0.01 100 1009.8
20260509073523 69 272 3.0 6.0 0.00 3.40 0.01 100 1010.0
20260509073019 69 262 4.0 6.0 0.00 3.40 0.01 100 1010.1
20260509072518 69 278 2.0 6.0 0.00 3.40 0.01 100 1010.0
20260509072018 69 284 1.0 3.0 0.00 3.40 0.01 100 1010.7
20260509071519 69 176 0.0 5.0 0.00 3.40 0.01 100 1011.1
20260509071017 69 137 0.0 5.0 0.00 3.40 0.01 100 1011.4
20260509070516 69 126 1.0 5.0 0.00 3.40 0.01 100 1011.1
20260509070015 69 241 2.0 5.0 0.00 3.40 0.01 100 1010.4
20260509065516 69 269 2.0 4.0 0.00 3.40 0.01 100 1010.4
20260509065014 69 270 0.0 3.0 0.00 3.40 0.01 100 1010.4
20260509064516 69 182 0.0 1.0 0.00 3.40 0.01 100 1010.6
20260509064015 69 182 0.0 1.0 0.00 3.40 0.01 100 1010.7
20260509063515 69 182 0.0 1.0 0.00 3.40 0.01 100 1010.8
20260509063245 69 182 0.0 1.0 0.00 3.40 0.01 100 1010.8
20260509062516 69 182 0.0 0.0 0.01 3.40 0.01 100 1010.9
20260509062014 69 182 0.0 0.0 0.01 3.40 0.01 100 1011.1
20260509061741 69 182 0.0 0.0 0.01 3.40 0.01 100 1011.1
20260509061014 69 182 0.0 0.0 0.01 3.40 0.01 100 1011.1
20260509060516 69 182 0.0 0.0 0.01 3.40 0.01 100 1011.1
20260509060016 69 182 0.0 1.0 0.01 3.40 0.01 100 1011.3
20260509055516 69 167 0.0 1.0 0.01 3.40 0.01 100 1011.4